Location: Peterborough
(44.3091°N, 78.3197°W)
Time: 17:20:00
(UTC-04:00)

Transit 2A Rocket - Pass Details

Date: 23 March 2023
Orbit: 584 x 914 km, 66.7° (Epoch: 04 June)

Event Time Altitude Azimuth Distance (km) Brightness Sun altitude
Rises 12:22:21 0° 190° (S) 3,194 8.8 45.0°
Reaches altitude 10° 12:24:44 10° 183° (S) 2,324 8.4 45.1°
Maximum altitude 12:29:48 44° 113° (ESE) 1,131 7.0 45.4°
Drops below altitude 10° 12:35:20 10° 43° (NE) 2,529 7.6 45.7°
Sets 12:38:00 0° 37° (NE) 3,505 8.2 45.8°
